QPF
0.03 0.06 0.05 0.02 0.01 0.01 0.00 0.00 0.00 0.00 0.00 0.00 0.00 0.00 0.00 0.00 0.00 0.00 0.00 0.00 0.00 0.00 0.00 0.00 0.00 0.00 0.00 0.00 0.00 0.00 0.00 0.00 0.00 0.00 0.00 0.00 0.00 0.00 0.00 0.00 0.00 0.00 0.00 0.00 0.00
0.00 0.00 0.01 0.01 0.00 0.00 0.00 0.00 0.00 0.00 0.00 0.00 0.00 0.00 0.00 0.00 0.00 0.00 0.00 0.00 0.00 0.00 0.00 0.00 0.00 0.00 0.00 0.00 0.00 0.00 0.00 0.00 0.00 0.00 0.00 0.00 0.00 0.00 0.00 0.00 0.00 0.00 0.00 0.00 0.00
0.00 0.00 0.00 0.00 0.00 0.00 0.00 0.00 0.00 0.00 0.00 0.00 0.00 0.00 0.00 0.00 0.00 0.00 0.00 0.00 0.00 0.00 0.00 0.00 0.00 0.00 0.00 0.00 0.00 0.00 0.00 0.00 0.00 0.00 0.00 0.00 0.00 0.00 0.00 0.00 0.00 0.00 0.00 0.00 0.00
0.00 0.00 0.00 0.00 0.00 0.00 0.00 0.00 0.00 0.00 0.00 0.00 0.00 0.00 0.00 0.00 0.00 0.00 0.00 0.00 0.00 0.00 0.00 0.00 0.00 0.00 0.00 0.00 0.00 0.00 0.00 0.00 0.00 0.00 0.00 0.00 0.00 0.00 0.00 0.00 0.00 0.00 0.00 0.00 0.00
0.00 0.00 0.00 0.00 0.00 0.00 0.00 0.00 0.00 0.00 0.00 0.00 0.00 0.00 0.00 0.00 0.00 0.00 0.00 0.00 0.00 0.00 0.00 0.00 0.00 0.00 0.00 0.00 0.00 0.00 0.00 0.00 0.00 0.00 0.00 0.00 0.00 0.00 0.00 0.00 0.00 0.00 0.00 0.00 0.00
0.00 0.00 0.00 0.00 0.00 0.00 0.00 0.00 0.00 0.00 0.00 0.00 0.00 0.00 0.00 0.00 0.00 0.00 0.00 0.00 0.00 0.00 0.00 0.00 0.00 0.00 0.00 0.00 0.00 0.00 0.00 0.00 0.00 0.00 0.00 0.00 0.00 0.00 0.00 0.00 0.00 0.00 0.00 0.00 0.00
0.00 0.00 0.00 0.00 0.00 0.00 0.00 0.00 0.00 0.00 0.00 0.00 0.00 0.00 0.00 0.00 0.00 0.00 0.00 0.00 0.00 0.00 0.00 0.00 0.00 0.00 0.00 0.00 0.00 0.00 0.00 0.00 0.00 0.00 0.00 0.00 0.00 0.00 0.00 0.00 0.00 0.00 0.00 0.00 0.00
0.00 0.00 0.00 0.00 0.00 0.00 0.00 0.00 0.00 0.00 0.00 0.00 0.00 0.00 0.00 0.00 0.00 0.00 0.00 0.00 0.00 0.00 0.00 0.00 0.00 0.00 0.00 0.00 0.00 0.00 0.00 0.00 0.00 0.00 0.00 0.00 0.00 0.00 0.00 0.00 0.00 0.00 0.00 0.00 0.00
0.00 0.00 0.00 0.00 0.00 0.00 0.00 0.00 0.00 0.00 0.00 0.00 0.00 0.00 0.00 0.00 0.00 0.00 0.00 0.00 0.00 0.00 0.00 0.00 0.00 0.00 0.00 0.00 0.00 0.00 0.00 0.00 0.00 0.00 0.00 0.00 0.00 0.00 0.00 0.00 0.00 0.00 0.00 0.00 0.00
0.00 0.00 0.00 0.00 0.00 0.00 0.00 0.00 0.00 0.00 0.00 0.00 0.00 0.00 0.00 0.00 0.00 0.00 0.00 0.00 0.00 0.00 0.00 0.00 0.00 0.00 0.00 0.00 0.00 0.00 0.00 0.00 0.00 0.00 0.00 0.00 0.00 0.00 0.00 0.00 0.00 0.00 0.00 0.00 0.00
0.00 0.00 0.00 0.00 0.00 0.00 0.00 0.00 0.00 0.00 0.00 0.00 0.00 0.00 0.00 0.00 0.00 0.00 0.00 0.00 0.00 0.00 0.00 0.00 0.00 0.00 0.00 0.00 0.00 0.00 0.00 0.00 0.00 0.00 0.00 0.00 0.00 0.00 0.00 0.00 0.00 0.00 0.00 0.00 0.00
0.00 0.00 0.00 0.00 0.00 0.00 0.00 0.00 0.00 0.00 0.00 0.00 0.00 0.00 0.00 0.00 0.00 0.00 0.00 0.00 0.00 0.00 0.00 0.00 0.00 0.00 0.00 0.00 0.00 0.00 0.00 0.00 0.00 0.00 0.00 0.00 0.00 0.00 0.00 0.00 0.00 0.00 0.00 0.00 0.00
0.00 0.00 0.00 0.00 0.00 0.00 0.00 0.00 0.00 0.00 0.00 0.00 0.00 0.00 0.00 0.00 0.00 0.00 0.00 0.00 0.00 0.00 0.00 0.00 0.00 0.00 0.00 0.00 0.00 0.00 0.00 0.00 0.00 0.00 0.00 0.00 0.00 0.00 0.00 0.00 0.00 0.00 0.00 0.00 0.00
0.00 0.00 0.00 0.00 0.00 0.00 0.00 0.00 0.00 0.00 0.00 0.00 0.00 0.00 0.00 0.00 0.00 0.00 0.00 0.00 0.00 0.00 0.00 0.00 0.00 0.00 0.00 0.00 0.00 0.00 0.00 0.00 0.00 0.00 0.00 0.00 0.00 0.00 0.00 0.00 0.00 0.00 0.00 0.00 0.00
0.00 0.00 0.00 0.00 0.00 0.00 0.00 0.00 0.00 0.00 0.00 0.00 0.00 0.00 0.00 0.00 0.00 0.00 0.00 0.00 0.00 0.00 0.00 0.00 0.00 0.00 0.00 0.00 0.00 0.00 0.00 0.00 0.00 0.00 0.00 0.00 0.00 0.00 0.00 0.00 0.00 0.00 0.00 0.00 0.00
0.00 0.00 0.00 0.00 0.00 0.00 0.00 0.00 0.00 0.00 0.00 0.00 0.00 0.00 0.00 0.00 0.00 0.00 0.00 0.00 0.00 0.00 0.00 0.00 0.00 0.00 0.00 0.00 0.00 0.00 0.00 0.00 0.00 0.00 0.00 0.00 0.00 0.00 0.00 0.00 0.00 0.00 0.00 0.00 0.00
0.00 0.00 0.00 0.00 0.00 0.00 0.00 0.00 0.00 0.00 0.00 0.00 0.00 0.00 0.00 0.00 0.00 0.00 0.00 0.00 0.00 0.00 0.00 0.00 0.00 0.00 0.00 0.00 0.00 0.00 0.00 0.00 0.00 0.00 0.00 0.00 0.00 0.00 0.00 0.00 0.00 0.00 0.00 0.00 0.00
0.00 0.00 0.00 0.00 0.00 0.00 0.00 0.00 0.00 0.00 0.00 0.00 0.00 0.00 0.00 0.00 0.00 0.00 0.00 0.00 0.00 0.00 0.00 0.00 0.00 0.00 0.00 0.00 0.00 0.00 0.00 0.00 0.00 0.00 0.00 0.00 0.00 0.00 0.00 0.00 0.00 0.00 0.00 0.00 0.00
0.00 0.00 0.00 0.00 0.00 0.00 0.00 0.00 0.00 0.00 0.00 0.00 0.00 0.00 0.00 0.00 0.00 0.00 0.00 0.00 0.00 0.00 0.00 0.00 0.00 0.00 0.00 0.00 0.00 0.00 0.00 0.00 0.00 0.00 0.00 0.00 0.00 0.00 0.00 0.00 0.00 0.00 0.00 0.00 0.00
0.00 0.00 0.00 0.00 0.00 0.00 0.00 0.00 0.00 0.00 0.00 0.00 0.00 0.00 0.00 0.00 0.00 0.00 0.00 0.00 0.00 0.00 0.00 0.00 0.00 0.00 0.00 0.00 0.00 0.00 0.00 0.00 0.00 0.00 0.00 0.00 0.00 0.00 0.00 0.00 0.00 0.00 0.00 0.00 0.00
0.00 0.00 0.00 0.00 0.00 0.00 0.00 0.00 0.00 0.00 0.00 0.00 0.00 0.00 0.00 0.00 0.00 0.00 0.00 0.00 0.00 0.00 0.00 0.00 0.00 0.00 0.00 0.00 0.00 0.00 0.00 0.00 0.00 0.00 0.00 0.00 0.00 0.00 0.00 0.00 0.00 0.00 0.00 0.00 0.00
0.00 0.00 0.00 0.00 0.00 0.00 0.00 0.00 0.00 0.00 0.00 0.00 0.00 0.00 0.00 0.00 0.00 0.00 0.00 0.00 0.00 0.00 0.00 0.00 0.00 0.00 0.00 0.00 0.00 0.00 0.00 0.00 0.00 0.00 0.00 0.00 0.00 0.00 0.00 0.00 0.00 0.00 0.00 0.00 0.00
0.00 0.00 0.00 0.00 0.00 0.00 0.00 0.00 0.00 0.00 0.00 0.00 0.00 0.00 0.00 0.00 0.00 0.00 0.00 0.00 0.00 0.00 0.00 0.00 0.00 0.00 0.00 0.00 0.00 0.00 0.00 0.00 0.00 0.00 0.00 0.00 0.00 0.00 0.00 0.00 0.00 0.00 0.00 0.00 0.00
0.00 0.00 0.00 0.00 0.00 0.00 0.00 0.00 0.00 0.00 0.00 0.00 0.00 0.00 0.00 0.00 0.00 0.00 0.00 0.00 0.00 0.00 0.00 0.00 0.00 0.00 0.00 0.00 0.00 0.00 0.00 0.00 0.00 0.00 0.00 0.00 0.00 0.00 0.00 0.00 0.00 0.00 0.00 0.00 0.00
0.00 0.00 0.00 0.00 0.00 0.00 0.00 0.00 0.00 0.00 0.00 0.00 0.00 0.00 0.00 0.00 0.00 0.00 0.00 0.00 0.00 0.00 0.00 0.00 0.00 0.00 0.00 0.00 0.00 0.00 0.00 0.00 0.00 0.00 0.00 0.00 0.00 0.00 0.00 0.00 0.00 0.00 0.00 0.00 0.00
0.00 0.00 0.00 0.00 0.00 0.00 0.00 0.00 0.00 0.00 0.00 0.00 0.00 0.00 0.00 0.00 0.00 0.00 0.00 0.00 0.00 0.00 0.00 0.00 0.00 0.00 0.00 0.00 0.00 0.00 0.00 0.00 0.00 0.00 0.00 0.00 0.00 0.00 0.00 0.00 0.00 0.00 0.00 0.00 0.00
0.00 0.00 0.00 0.00 0.00 0.00 0.00 0.00 0.00 0.00 0.00 0.00 0.00 0.00 0.00 0.00 0.00 0.00 0.00 0.00 0.00 0.00 0.00 0.00 0.00 0.00 0.00 0.00 0.00 0.00 0.00 0.00 0.00 0.00 0.00 0.00 0.00 0.00 0.00 0.00 0.00 0.00 0.00 0.00 0.00
MSLP
1016.78 1016.74 1016.71 1016.95 1016.79 1016.80 1016.71 1016.63 1016.69 1016.61 1016.54 1016.57 1016.44 1016.48 1016.43 1016.38 1016.21 1016.21 1016.69 1017.11 1016.65 1016.28 1016.12 1015.79 1015.28 1015.13 1015.24 1015.48 1015.77 1015.41 1014.39 1014.01 1014.32 1014.92 1015.54 1016.53 1016.63 1017.10 1017.33 1016.90 1016.75 1016.75 1016.78 1017.28 1017.67
1017.25 1017.16 1017.20 1017.15 1017.13 1017.14 1017.01 1016.95 1016.91 1016.92 1016.78 1016.64 1016.55 1016.61 1016.60 1016.42 1015.93 1016.56 1017.53 1016.99 1016.56 1016.32 1015.92 1015.54 1015.18 1015.21 1015.24 1015.72 1015.81 1015.16 1014.72 1014.85 1015.53 1015.80 1016.23 1016.91 1017.23 1017.24 1017.11 1016.79 1016.67 1016.79 1017.13 1017.53 1017.76
1017.83 1017.60 1017.45 1017.48 1017.50 1017.45 1017.37 1017.33 1017.30 1017.15 1016.93 1016.81 1016.72 1016.72 1016.59 1016.30 1015.96 1017.02 1017.35 1016.87 1016.52 1016.28 1016.09 1015.83 1015.50 1015.36 1015.42 1016.01 1016.16 1015.83 1015.46 1016.04 1016.53 1016.87 1017.21 1017.33 1017.40 1017.47 1017.10 1016.51 1016.49 1016.68 1017.11 1017.45 1017.64
1018.17 1018.15 1017.95 1017.83 1017.71 1017.60 1017.47 1017.44 1017.35 1017.10 1017.02 1016.83 1016.82 1016.67 1016.57 1016.15 1016.89 1017.40 1017.40 1016.94 1016.64 1016.28 1015.99 1015.89 1015.51 1015.36 1015.67 1015.97 1016.52 1016.28 1016.84 1016.95 1017.28 1017.65 1017.70 1017.61 1017.60 1017.25 1017.12 1016.55 1016.84 1017.36 1017.67 1017.82 1017.60
1018.36 1018.24 1018.03 1017.97 1017.87 1017.76 1017.69 1017.53 1017.28 1017.26 1017.00 1016.90 1016.83 1016.69 1016.56 1016.26 1017.41 1017.72 1017.50 1017.04 1016.60 1016.35 1016.37 1016.09 1015.62 1015.70 1015.83 1016.38 1016.72 1016.65 1017.29 1017.64 1017.83 1018.01 1018.05 1018.07 1017.58 1017.25 1016.77 1016.71 1017.10 1017.61 1017.72 1017.73 1017.75
1018.56 1018.46 1018.20 1018.07 1017.98 1017.83 1017.72 1017.51 1017.44 1017.19 1017.01 1017.00 1016.81 1016.72 1016.35 1016.85 1017.95 1017.84 1017.66 1017.07 1016.92 1016.58 1016.76 1016.47 1016.15 1016.24 1016.42 1016.91 1017.09 1017.36 1017.63 1017.77 1017.93 1017.95 1017.98 1017.85 1017.42 1017.52 1016.51 1016.81 1017.19 1017.63 1017.78 1017.88 1017.95
1018.55 1018.51 1018.38 1018.11 1017.97 1017.90 1017.80 1017.67 1017.37 1017.18 1017.17 1017.11 1016.98 1016.70 1016.69 1018.11 1018.10 1017.93 1017.65 1017.57 1017.40 1017.16 1016.92 1017.14 1016.85 1016.49 1016.87 1017.15 1017.70 1017.48 1017.33 1017.49 1017.65 1017.83 1017.82 1017.86 1017.01 1016.69 1016.50 1016.95 1017.17 1017.51 1017.70 1017.86 1018.00
1018.53 1018.50 1018.48 1018.40 1018.15 1017.97 1017.82 1017.62 1017.42 1017.34 1017.33 1017.24 1017.10 1016.72 1017.59 1018.22 1018.16 1018.00 1017.64 1017.67 1017.52 1017.44 1017.42 1017.59 1017.07 1017.03 1017.21 1017.65 1017.39 1016.96 1016.96 1016.72 1017.44 1017.65 1017.82 1017.50 1016.05 1016.00 1016.60 1016.78 1016.78 1017.24 1017.56 1017.81 1017.92
1018.51 1018.37 1018.25 1018.22 1018.09 1017.87 1017.67 1017.50 1017.47 1017.48 1017.34 1017.18 1017.00 1016.64 1017.93 1018.24 1018.15 1018.15 1018.10 1017.78 1017.63 1017.66 1017.76 1017.49 1017.28 1017.44 1017.62 1016.94 1016.51 1016.50 1016.06 1016.53 1017.13 1017.80 1017.62 1017.07 1015.93 1016.19 1016.77 1016.95 1016.75 1017.17 1017.51 1017.73 1017.86
1018.52 1018.34 1018.19 1018.03 1017.89 1017.81 1017.70 1017.65 1017.54 1017.35 1017.21 1017.12 1017.12 1017.35 1018.29 1018.34 1018.40 1018.40 1018.31 1018.04 1017.65 1017.70 1017.47 1017.30 1017.32 1017.09 1017.23 1016.80 1016.37 1016.28 1016.34 1016.74 1017.03 1017.71 1017.48 1016.85 1016.22 1016.15 1016.28 1016.81 1016.73 1017.03 1017.43 1017.68 1017.86
1018.72 1018.51 1018.36 1018.21 1018.15 1018.05 1017.69 1017.50 1017.65 1017.70 1017.63 1018.34 1018.40 1018.25 1018.43 1018.59 1018.74 1018.51 1018.47 1018.04 1017.77 1017.53 1017.16 1017.63 1017.00 1017.30 1018.05 1018.08 1017.80 1017.47 1017.15 1017.08 1017.30 1018.12 1017.86 1016.86 1016.44 1016.24 1016.64 1016.85 1016.83 1017.02 1017.42 1017.72 1017.95
1018.78 1018.50 1018.31 1018.16 1018.07 1018.00 1017.75 1017.83 1018.66 1018.77 1018.80 1018.83 1018.67 1018.62 1018.76 1018.83 1018.56 1018.40 1018.37 1018.13 1017.59 1017.52 1017.87 1017.73 1017.89 1019.04 1019.18 1018.95 1018.53 1018.18 1017.72 1017.41 1017.65 1018.31 1018.18 1016.94 1016.23 1016.39 1016.90 1017.14 1017.23 1017.30 1017.56 1017.86 1017.99
1018.86 1018.54 1018.22 1018.18 1018.14 1018.24 1018.48 1019.04 1019.23 1018.85 1018.32 1018.89 1018.78 1018.63 1018.83 1018.80 1018.70 1018.55 1018.41 1018.30 1018.03 1018.11 1018.11 1017.85 1019.32 1019.71 1019.67 1019.47 1018.97 1018.77 1018.41 1018.46 1018.81 1018.47 1018.18 1017.57 1015.98 1016.23 1016.92 1017.25 1017.59 1017.77 1018.00 1018.21 1018.37
1018.89 1018.55 1018.21 1017.95 1018.27 1018.64 1018.89 1019.29 1019.20 1018.87 1018.49 1019.10 1018.77 1018.80 1018.80 1018.62 1018.82 1018.99 1018.85 1018.71 1018.51 1018.64 1018.72 1019.11 1019.95 1020.08 1019.98 1019.68 1019.69 1019.46 1019.65 1019.56 1019.40 1018.92 1017.69 1017.89 1015.81 1015.64 1016.26 1016.79 1017.28 1017.75 1018.03 1018.35 1018.59
1018.92 1018.61 1018.49 1017.99 1018.21 1018.76 1019.22 1019.27 1019.17 1018.89 1018.66 1019.19 1018.69 1018.70 1018.67 1018.62 1018.99 1018.98 1019.22 1018.42 1018.66 1018.99 1019.32 1020.11 1020.30 1020.26 1020.04 1020.32 1020.36 1020.38 1020.44 1020.15 1019.86 1019.08 1018.41 1017.34 1016.83 1015.28 1016.10 1016.39 1017.05 1017.76 1018.29 1018.71 1019.03
1019.02 1018.78 1018.52 1018.47 1018.73 1019.35 1019.31 1019.25 1018.95 1018.67 1018.55 1018.71 1018.58 1018.61 1018.53 1018.72 1018.89 1018.89 1018.84 1018.82 1019.35 1019.20 1019.35 1020.18 1020.77 1020.59 1020.63 1020.80 1020.79 1020.94 1020.65 1020.32 1019.97 1019.04 1017.97 1017.25 1016.73 1014.63 1015.36 1015.95 1016.75 1017.81 1018.40 1018.89 1019.23
1019.10 1019.04 1018.82 1018.99 1019.31 1019.30 1019.19 1018.74 1018.61 1018.31 1019.04 1018.75 1018.69 1018.67 1018.65 1018.75 1018.82 1018.91 1018.97 1019.03 1019.31 1019.43 1019.47 1020.11 1020.44 1020.81 1021.11 1020.87 1020.94 1020.76 1020.25 1019.57 1019.24 1018.68 1017.40 1017.33 1016.63 1014.66 1015.71 1016.36 1016.73 1017.65 1018.36 1018.96 1019.36
1019.35 1019.03 1019.65 1019.60 1019.56 1019.32 1018.82 1018.22 1018.19 1018.21 1018.28 1018.69 1018.75 1018.77 1018.69 1019.07 1019.19 1019.16 1019.17 1019.41 1019.98 1019.87 1019.88 1020.02 1020.66 1021.01 1021.43 1021.34 1021.03 1020.69 1020.36 1019.60 1018.94 1018.30 1017.30 1017.45 1015.76 1015.00 1016.17 1017.00 1017.55 1018.12 1018.62 1019.11 1019.40
1019.11 1019.10 1019.33 1019.72 1019.62 1019.15 1018.41 1018.25 1018.06 1018.17 1018.43 1018.71 1018.89 1018.65 1018.87 1019.28 1019.42 1019.19 1019.31 1019.60 1020.07 1020.30 1020.40 1020.35 1020.78 1021.51 1021.79 1021.89 1022.00 1021.28 1020.91 1020.83 1019.87 1019.90 1018.51 1016.31 1015.71 1016.05 1016.96 1017.53 1017.94 1018.43 1018.82 1019.20 1019.47
1019.03 1019.02 1019.40 1019.71 1019.69 1019.11 1018.27 1018.31 1018.64 1018.79 1018.86 1018.88 1018.67 1018.98 1018.75 1019.06 1019.21 1019.27 1019.43 1019.96 1020.32 1020.75 1020.83 1020.83 1021.06 1021.70 1022.21 1022.36 1022.39 1021.89 1021.71 1021.13 1020.49 1019.74 1018.24 1016.53 1016.17 1015.58 1016.85 1017.31 1017.98 1018.45 1018.88 1019.29 1019.55
1019.39 1019.16 1019.51 1019.61 1019.36 1019.03 1018.69 1018.64 1018.88 1019.27 1019.40 1019.26 1018.96 1018.96 1018.91 1019.01 1019.33 1019.42 1019.61 1020.25 1020.47 1020.88 1020.95 1020.89 1021.10 1021.91 1022.23 1022.03 1021.69 1022.09 1021.72 1021.75 1021.47 1020.64 1019.31 1017.87 1016.18 1016.65 1017.01 1017.26 1017.88 1018.46 1019.10 1019.41 1019.62
1019.91 1019.51 1020.02 1019.75 1019.44 1019.50 1019.05 1019.02 1019.05 1019.35 1019.70 1019.85 1019.77 1019.29 1019.12 1019.23 1019.33 1019.58 1019.73 1020.22 1020.75 1020.94 1021.06 1021.35 1021.16 1021.05 1021.10 1021.85 1022.06 1021.76 1021.44 1021.25 1021.10 1021.00 1020.45 1019.65 1016.84 1017.27 1017.54 1017.91 1018.09 1018.77 1019.31 1019.58 1019.79
1019.97 1020.04 1020.09 1019.90 1019.05 1019.13 1019.43 1019.32 1019.41 1019.33 1019.06 1019.62 1019.98 1020.17 1020.06 1019.77 1019.78 1019.81 1020.24 1020.86 1021.11 1021.27 1021.39 1021.69 1021.91 1021.56 1021.47 1022.44 1022.45 1022.08 1021.67 1021.56 1021.65 1021.28 1019.80 1019.11 1016.94 1017.66 1017.86 1018.08 1018.65 1018.99 1019.31 1019.37 1019.26
1020.43 1020.13 1019.95 1019.72 1019.21 1018.75 1019.02 1019.19 1019.40 1019.57 1019.71 1019.65 1019.23 1019.66 1020.39 1020.58 1020.75 1020.63 1020.82 1021.34 1021.66 1021.70 1021.76 1021.73 1021.68 1021.21 1020.78 1020.79 1021.30 1021.75 1021.82 1021.91 1021.67 1021.34 1019.41 1018.38 1016.85 1017.71 1017.86 1018.21 1019.12 1019.48 1019.56 1019.55 1019.54
1020.66 1020.57 1020.92 1019.94 1019.61 1019.09 1018.93 1019.09 1019.37 1019.57 1019.68 1019.70 1020.05 1019.66 1019.16 1019.54 1020.14 1020.55 1021.15 1021.62 1022.02 1022.23 1022.59 1022.61 1022.31 1021.63 1020.93 1020.79 1020.89 1020.63 1020.86 1020.94 1020.83 1020.26 1019.96 1017.40 1018.01 1018.11 1018.61 1019.42 1020.07 1020.29 1020.18 1020.01 1019.92
1021.18 1020.77 1021.03 1020.42 1020.04 1019.70 1019.62 1019.20 1018.95 1019.26 1019.44 1019.78 1019.65 1019.88 1020.13 1019.99 1019.71 1019.85 1020.32 1020.92 1021.24 1022.29 1022.48 1022.92 1022.63 1022.70 1021.99 1021.48 1021.30 1020.80 1020.76 1020.39 1020.46 1020.22 1019.67 1019.18 1019.04 1019.93 1020.71 1020.88 1020.90 1020.82 1020.61 1020.44 1020.23
1021.71 1021.46 1020.64 1020.56 1020.15 1019.84 1019.31 1019.44 1019.47 1019.42 1020.06 1020.18 1020.00 1020.32 1020.67 1020.78 1020.85 1020.93 1021.01 1021.21 1021.36 1021.65 1022.25 1023.01 1023.16 1023.16 1021.56 1021.79 1021.66 1020.60 1019.40 1019.68 1019.88 1020.08 1020.33 1020.36 1020.70 1021.28 1021.32 1021.58 1021.67 1021.51 1021.03 1020.76 1020.45
Thickness
5542 5540 5541 5540 5543 5548 5552 5557 5561 5570 5580 5591 5607 5623 5637 5649 5661 5671 5670 5677 5687 5695 5701 5707 5714 5719 5721 5716 5715 5718 5721 5717 5715 5708 5710 5707 5705 5704 5704 5705 5710 5712 5711 5710 5708
5545 5545 5544 5544 5547 5550 5555 5561 5567 5574 5584 5597 5612 5626 5638 5650 5664 5666 5669 5678 5687 5694 5701 5706 5710 5715 5714 5710 5711 5718 5719 5716 5711 5711 5706 5702 5697 5699 5701 5704 5706 5708 5709 5707 5704
5549 5548 5549 5551 5553 5557 5561 5566 5571 5581 5592 5604 5618 5631 5642 5654 5664 5662 5670 5680 5688 5695 5700 5705 5710 5712 5708 5706 5704 5706 5713 5704 5702 5702 5699 5697 5695 5696 5698 5702 5707 5706 5704 5703 5700
5558 5555 5557 5559 5562 5565 5570 5575 5581 5592 5600 5613 5625 5637 5646 5658 5657 5663 5671 5681 5688 5695 5700 5703 5708 5707 5704 5703 5700 5703 5696 5699 5696 5693 5692 5693 5694 5696 5696 5705 5706 5700 5697 5694 5695
5568 5567 5568 5569 5571 5575 5579 5585 5594 5600 5610 5622 5633 5642 5652 5658 5655 5664 5673 5681 5689 5695 5695 5700 5705 5704 5703 5697 5696 5699 5692 5691 5690 5687 5687 5686 5690 5693 5696 5703 5701 5695 5693 5691 5689
5577 5577 5579 5581 5582 5586 5592 5598 5604 5612 5622 5631 5641 5649 5658 5656 5658 5666 5673 5682 5687 5694 5692 5699 5701 5701 5696 5690 5692 5689 5686 5686 5686 5686 5685 5685 5689 5685 5700 5697 5693 5689 5688 5685 5683
5588 5587 5589 5593 5596 5599 5602 5608 5616 5624 5632 5639 5647 5655 5658 5650 5660 5667 5674 5679 5685 5689 5691 5692 5696 5700 5694 5686 5683 5684 5685 5684 5685 5683 5683 5680 5686 5685 5697 5691 5688 5685 5683 5680 5677
5600 5599 5598 5600 5605 5610 5615 5620 5627 5633 5640 5645 5651 5659 5650 5657 5662 5669 5675 5678 5684 5687 5689 5688 5695 5690 5688 5682 5683 5684 5684 5688 5680 5679 5678 5682 5699 5695 5691 5688 5687 5682 5677 5673 5670
5611 5611 5612 5612 5615 5620 5625 5631 5636 5640 5646 5651 5657 5664 5652 5660 5665 5670 5673 5677 5681 5683 5684 5688 5689 5682 5681 5686 5688 5684 5692 5682 5679 5670 5672 5679 5690 5687 5683 5680 5680 5677 5672 5667 5663
5622 5622 5623 5624 5626 5629 5633 5637 5641 5646 5651 5655 5659 5662 5657 5658 5664 5666 5671 5674 5678 5678 5681 5684 5682 5685 5680 5683 5684 5681 5680 5672 5674 5668 5669 5675 5678 5683 5682 5672 5673 5671 5665 5660 5656
5630 5630 5631 5632 5633 5635 5639 5644 5646 5649 5649 5643 5645 5651 5654 5659 5661 5664 5667 5672 5674 5677 5678 5671 5683 5676 5662 5659 5661 5662 5663 5664 5667 5656 5660 5667 5668 5674 5668 5665 5666 5664 5659 5653 5647
5635 5637 5638 5640 5641 5642 5644 5646 5642 5647 5643 5643 5646 5650 5653 5655 5659 5663 5667 5668 5671 5668 5663 5671 5666 5651 5649 5648 5651 5653 5659 5665 5662 5649 5651 5662 5665 5665 5659 5657 5656 5654 5650 5644 5640
5639 5640 5643 5642 5644 5643 5643 5641 5640 5644 5653 5645 5647 5650 5651 5655 5654 5658 5661 5660 5662 5658 5658 5667 5648 5642 5642 5643 5649 5648 5654 5650 5643 5645 5644 5644 5663 5657 5652 5649 5644 5642 5638 5633 5627
5642 5644 5646 5647 5646 5642 5643 5639 5641 5645 5650 5643 5647 5649 5652 5653 5652 5652 5654 5655 5653 5651 5649 5647 5638 5637 5639 5642 5640 5646 5633 5631 5629 5634 5656 5635 5669 5656 5649 5643 5638 5633 5629 5622 5617
5643 5645 5646 5650 5648 5647 5642 5641 5642 5647 5639 5641 5645 5649 5649 5651 5648 5649 5647 5654 5648 5643 5643 5636 5632 5634 5637 5631 5628 5631 5620 5621 5618 5625 5625 5636 5636 5657 5637 5633 5629 5622 5616 5610 5605
5642 5644 5645 5646 5644 5640 5640 5641 5645 5644 5633 5641 5642 5641 5646 5644 5643 5644 5646 5647 5639 5639 5637 5627 5622 5626 5626 5621 5619 5614 5615 5612 5609 5617 5628 5622 5624 5661 5639 5634 5626 5614 5608 5602 5597
5639 5639 5641 5640 5642 5638 5639 5646 5639 5640 5632 5637 5636 5636 5636 5635 5638 5636 5635 5637 5638 5633 5633 5625 5622 5618 5614 5618 5613 5612 5615 5624 5619 5614 5632 5606 5614 5647 5628 5622 5621 5609 5601 5594 5588
5635 5637 5632 5632 5633 5635 5640 5647 5630 5634 5637 5629 5630 5630 5634 5627 5626 5626 5628 5629 5615 5620 5618 5623 5620 5611 5603 5606 5609 5607 5607 5614 5600 5615 5623 5593 5618 5637 5617 5609 5605 5597 5591 5584 5579
5632 5633 5631 5627 5628 5631 5643 5628 5638 5635 5631 5626 5623 5629 5626 5619 5619 5621 5619 5618 5610 5608 5614 5613 5612 5593 5590 5588 5586 5595 5596 5585 5585 5567 5583 5616 5618 5614 5600 5596 5592 5584 5579 5573 5568
5629 5629 5627 5622 5622 5628 5634 5626 5624 5619 5618 5619 5627 5617 5624 5618 5616 5614 5611 5605 5602 5596 5594 5596 5599 5584 5578 5576 5574 5578 5575 5582 5577 5573 5584 5607 5600 5616 5592 5588 5581 5573 5567 5562 5557
5621 5626 5619 5616 5618 5624 5617 5621 5614 5610 5610 5612 5613 5609 5612 5611 5605 5607 5605 5595 5593 5588 5587 5587 5589 5580 5571 5575 5582 5570 5571 5562 5561 5565 5571 5576 5601 5590 5584 5582 5570 5563 5552 5547 5543
5606 5619 5606 5608 5616 5601 5610 5609 5607 5604 5600 5599 5598 5602 5605 5600 5599 5597 5599 5594 5586 5585 5584 5577 5581 5581 5586 5563 5560 5563 5568 5569 5566 5557 5553 5545 5572 5571 5568 5560 5556 5547 5538 5533 5528
5601 5602 5597 5598 5611 5604 5596 5599 5599 5598 5600 5593 5589 5586 5586 5589 5589 5588 5585 5576 5574 5573 5572 5568 5564 5566 5570 5555 5550 5554 5556 5552 5537 5539 5556 5556 5578 5558 5555 5550 5537 5535 5528 5523 5518
5588 5596 5593 5590 5589 5600 5595 5593 5590 5586 5586 5586 5591 5585 5576 5573 5570 5570 5570 5563 5560 5563 5559 5561 5559 5567 5575 5571 5558 5545 5541 5537 5538 5531 5551 5552 5571 5555 5552 5542 5529 5520 5513 5506 5499
5568 5577 5565 5588 5584 5585 5585 5584 5582 5581 5579 5578 5572 5580 5583 5579 5571 5566 5557 5553 5549 5546 5542 5543 5534 5553 5561 5559 5550 5552 5546 5542 5526 5534 5527 5560 5543 5542 5530 5514 5500 5493 5488 5483 5478
5562 5567 5552 5562 5559 5569 5567 5576 5579 5573 5574 5570 5571 5567 5565 5567 5571 5565 5561 5554 5554 5537 5537 5523 5531 5499 5510 5534 5533 5531 5530 5531 5525 5525 5524 5528 5523 5503 5487 5483 5477 5471 5469 5463 5459
5532 5535 5551 5541 5551 5558 5566 5562 5562 5564 5554 5555 5559 5557 5552 5551 5546 5543 5543 5541 5539 5538 5531 5520 5510 5501 5529 5509 5500 5507 5528 5523 5519 5515 5505 5499 5493 5470 5466 5457 5450 5446 5446 5443 5439